Location: Newark
(39.6867°N, 100.6772°W)
Time: 21:52:05
(UTC+00:00)

Vanguard 1 - Pass Details

Date: 14 October 2019
Orbit: 652 x 3831 km, 34.2° (Epoch: 12 November)

Event Time Altitude Azimuth Distance (km) Brightness Sun altitude
Rises 03:07:10 0° 240° (WSW) 4,604 14.0 -35.1°
Reaches altitude 10° 03:09:42 10° 236° (WSW) 3,928 13.5 -35.5°
Maximum altitude 03:20:37 62° 159° (SSE) 2,729 11.9 -37.4°
Enters shadow 03:21:11 62° 150° (SSE) 2,778 11.9 -37.5°
Drops below altitude 10° 03:40:10 10° 86° (E) 6,623 - -40.8°
Sets 03:45:58 0° 84° (E) 7,865 - -41.8°
